Flag for United Kingdom Weather past 2 weeks in Taunton, England, United Kingdom

Now
48 °F

Cool.


Feels Like: 46 °F
Forecast: 44 / 65 °F
Wind: 6 mph from Northwest

Location: Dunkeswell Aerodrome

Current Time: Aug 23, 2014 at 1:51:15 AM

Latest Report: Aug 23, 2014 at 12:00 AM


Visibility: 19 mi

Pressure: 30.01 "Hg

Humidity: 84%

Dew point: 44 °F

Location of TauntonLocation

Historic Weather in Taunton — Graph

°F

Taunton temperature yesterday

Maximum temperature yesterday: 60 °F (at 4:00 PM)
Minimum temperature yesterday: 48 °F (at 11:00 PM)
Average temperature yesterday: 54 °F

Past Weeks' High & Low Weather Summary

 TemperatureHumidityPressure
High67 °F (Aug 8, 11:00 AM)100% (Aug 10, 8:00 AM)30.22 "Hg (Aug 10, 8:00 AM)
Low44 °F (Aug 21, 5:00 AM)47% (Aug 20, 4:00 PM)29.26 "Hg (Aug 10, 9:00 AM)
Average56 °F80%29.89 "Hg
* Reported Midnight between Aug 7 and Aug 8 — Midnight between Aug 22 and Aug 23, Taunton, Weather by CustomWeather, © 2014

Note: Actual official high and low records may vary slightly from our data, if they occured in-between our weather recording intervals... More about our weather records

Advertising

Taunton weather history for previous 24 hours

 ConditionsComfort  
Time TempWeatherWind HumidityBarometerVisibility
12:00 AM
Aug 23
48 °FCool.6 mph84%30.01 "Hg19 mi
11:00 PM
Aug 22
48 °FCool.6 mph81%30.01 "Hg22 mi
10:00 PM49 °FCool.6 mph78%30.00 "Hg22 mi
9:00 PM51 °FCool.7 mph71%29.99 "Hg19 mi
8:00 PM54 °FCool.8 mph65%29.97 "Hg19 mi
7:00 PM55 °FCool.7 mph65%29.96 "Hg19 mi
6:00 PM56 °FCool.8 mph61%29.95 "Hg18 mi
5:00 PM58 °FRefreshingly cool.9 mph57%29.94 "Hg19 mi
4:00 PM60 °FRefreshingly cool.10 mph52%29.94 "Hg22 mi
3:00 PM60 °FRefreshingly cool.9 mph56%29.93 "Hg17 mi
2:00 PM59 °FRefreshingly cool.13 mph58%29.93 "Hg18 mi
1:00 PM60 °FRefreshingly cool.9 mph57%29.92 "Hg22 mi
12:00 PM59 °FCool.10 mph63%29.91 "Hg22 mi
11:00 AM57 °FCool.9 mph71%29.90 "Hg19 mi
10:00 AM55 °FCool.5 mph90%29.90 "Hg15 mi
9:00 AM53 °FCool.6 mph97%29.89 "Hg11 mi
8:00 AM52 °FCool.8 mph99%29.87 "Hg8 mi
7:00 AM51 °FCool.6 mph99%29.86 "Hg7 mi
6:00 AM52 °FCool.6 mph97%29.86 "Hg13 mi
5:00 AM52 °FCool.7 mph94%29.86 "Hg15 mi
4:00 AM52 °FCool.9 mph95%29.86 "Hg17 mi
3:00 AM52 °FCool.8 mph94%29.87 "Hg16 mi
2:00 AM52 °FCool.9 mph93%29.88 "Hg14 mi
1:00 AM52 °FCool.8 mph91%29.90 "Hg19 mi
Weather by CustomWeather, © 2014

See weather overviewHow to use our weather pages